Flag for Germany Weather past 2 weeks in Sonneberg, Thuringia, Germany

Now
86 °F

Passing clouds.


Feels Like: 84 °F
Forecast: 56 / 76 °F
Wind: 7 mph from South

Location: Hof Airport

Current Time: Aug 4, 2015 at 2:17:59 PM

Latest Report: Aug 4, 2015 at 1:50 PM


Visibility: N/A

Pressure: 29.98 "Hg

Humidity: 31%

Dew point: 52 °F

Location of SonnebergLocation

Historic Weather in Sonneberg — Graph

°F

Sonneberg temperature yesterday

Maximum temperature yesterday: 82 °F (at 1:50 PM)
Minimum temperature yesterday: 59 °F (at 6:50 AM)
Average temperature yesterday: 75 °F

Past Weeks' High & Low Weather Summary

 TemperatureHumidityPressure
High90 °F (Jul 22, 1:50 PM)94% (Jul 21, 1:20 AM)30.15 "Hg (Jul 21, 1:20 AM)
Low48 °F (Jul 30, 6:50 AM)26% (Jul 26, 4:20 PM)29.68 "Hg (Jul 27, 7:20 AM)
Average68 °F53%29.96 "Hg
* Reported Jul 20 1:20 PM — Aug 4 1:20 PM, Sonneberg, Weather by CustomWeather, © 2015

Note: Actual official high and low records may vary slightly from our data, if they occured in-between our weather recording intervals... More about our weather records

Advertising

Sonneberg weather history for previous 24 hours

 ConditionsComfort  
Time TempWeatherWind HumidityBarometerVisibility
1:20 PM
Tue, Aug 4
86 °FPassing clouds.9 mph29%29.98 "HgN/A
12:50 PM82 °FPassing clouds.8 mph32%29.98 "HgN/A
12:20 PM84 °FPassing clouds.10 mph33%29.98 "HgN/A
11:50 AM82 °FPassing clouds.9 mph37%29.98 "HgN/A
11:20 AM81 °FPassing clouds.8 mph39%29.98 "HgN/A
10:50 AM81 °FSunny.8 mph39%30.01 "Hg10 mi
10:20 AM79 °FPassing clouds.6 mph42%30.01 "HgN/A
9:50 AM77 °FPassing clouds.6 mph47%30.01 "HgN/A
9:20 AM75 °FPassing clouds.5 mph50%30.01 "HgN/A
8:50 AM73 °FPassing clouds.3 mph53%30.01 "HgN/A
8:20 AM70 °FSunny.3 mph60%30.04 "Hg10 mi
7:50 AM68 °FSunny.1 mph60%30.04 "Hg10 mi
7:20 AM68 °FSunny.1 mph64%30.04 "Hg10 mi
6:50 AM63 °FSunny.No wind68%30.04 "Hg10 mi
7:50 PM
Mon, Aug 3
77 °FSunny.2 mph42%30.07 "Hg10 mi
7:20 PM77 °FPassing clouds.6 mph39%30.07 "HgN/A
6:50 PM79 °FSunny.6 mph37%30.07 "Hg10 mi
6:20 PM77 °FPassing clouds.6 mph42%30.09 "HgN/A
5:50 PM77 °FPassing clouds.5 mph42%30.09 "HgN/A
5:20 PM82 °FPassing clouds.6 mph35%30.09 "HgN/A
4:50 PM82 °FPassing clouds.6 mph35%30.09 "HgN/A
4:20 PM81 °FPassing clouds.6 mph37%30.09 "HgN/A
3:50 PM82 °FPassing clouds.7 mph35%30.09 "HgN/A
3:20 PM79 °FPassing clouds.6 mph39%30.12 "HgN/A
2:50 PM82 °FSunny.7 mph35%30.12 "Hg10 mi
2:20 PM81 °FPassing clouds.7 mph37%30.12 "HgN/A
Weather by CustomWeather, © 2015

See weather overviewHow to use our weather pages